Temp
36 37 36 36 36 36 36 36 37 36 36 37 35 35 36 37 38 37 36 36 35 34 34 33 33 32 32 32 31 32 32 31 32 32 31 30 30 29 28 28 28 26
35 36 36 36 36 36 37 37 37 37 36 36 35 35 34 35 35 36 35 35 35 34 34 33 33 32 32 32 32 31 31 32 30 31 29 29 30 30 29 29 29 29
34 34 34 34 34 34 35 36 36 36 36 36 36 34 33 33 33 34 34 35 35 34 33 33 32 32 31 31 31 30 30 30 29 30 29 29 30 29 29 29 29 28
32 33 33 33 33 33 33 33 33 33 34 33 33 32 32 32 31 31 32 33 34 34 34 33 32 32 31 30 29 30 30 29 30 30 28 29 29 29 28 29 28 28
31 32 32 32 32 33 33 31 30 31 31 31 31 31 29 29 29 29 30 32 33 33 32 32 32 31 31 30 29 29 29 28 29 28 27 27 28 28 27 27 26 25
31 31 31 31 32 31 31 31 30 31 31 31 31 30 29 29 28 27 27 28 30 31 31 31 31 31 30 29 29 28 28 28 28 27 26 25 26 27 26 26 25 24
29 30 30 31 30 30 30 30 30 30 31 31 31 30 31 29 28 27 27 27 28 28 29 30 30 29 30 29 28 27 27 27 26 25 24 25 25 25 25 24 23 22
28 30 30 29 28 28 28 29 28 28 29 30 30 31 31 30 30 30 29 27 27 27 28 28 28 28 28 27 26 25 25 25 24 24 23 23 23 23 23 23 22 18
28 28 28 27 27 27 27 26 27 28 29 28 28 29 30 30 30 30 29 29 28 27 27 26 26 25 25 24 23 23 23 24 23 23 22 21 21 21 21 21 18 17
28 27 27 26 26 26 26 26 25 26 27 27 27 28 27 29 29 29 28 28 26 26 26 25 24 23 22 23 22 22 22 21 22 21 20 18 18 17 17 16 15 14
27 27 26 25 25 25 25 25 26 26 26 25 25 25 25 26 27 28 27 26 25 25 25 24 24 23 22 22 22 22 21 19 18 18 17 17 17 16 15 14 13 13
26 26 25 25 25 25 25 25 25 25 25 25 25 24 24 23 23 24 24 23 23 23 23 22 22 21 20 20 20 20 20 20 18 17 17 16 16 16 15 15 13 13
25 25 25 25 24 24 24 24 24 24 24 23 23 23 22 21 21 22 22 22 22 21 20 19 19 19 19 19 19 18 17 16 15 16 16 16 16 16 16 16 15 14
25 24 24 24 24 24 24 23 23 23 22 23 22 21 20 21 20 20 21 22 21 21 20 20 19 18 19 19 17 16 15 14 14 14 14 14 15 15 16 15 15 15
24 24 24 24 23 22 22 22 22 22 21 21 21 20 19 20 20 20 19 18 19 19 18 19 17 16 16 16 14 13 13 12 12 12 13 13 14 15 15 15 15 16
22 23 23 22 22 21 21 21 21 20 19 19 18 18 18 19 18 17 16 15 15 15 15 15 14 14 14 13 13 13 13 12 12 12 12 13 14 14 14 15 15 15
22 22 22 21 21 21 20 19 18 18 18 16 16 16 15 15 15 14 13 14 14 12 11 11 12 12 12 15 17 18 16 15 15 15 14 13 13 13 13 14 16 16
21 21 20 19 19 18 18 18 17 15 14 14 14 14 14 13 12 12 12 12 12 10 9 9 9 10 13 15 16 17 17 15 15 15 15 15 15 15 15 15 15 15
20 20 19 18 17 16 16 15 14 13 12 12 11 12 12 10 10 11 10 10 9 7 7 8 8 9 12 14 15 16 17 17 16 15 15 15 15 15 15 15 15 15
19 18 16 15 15 15 14 13 12 11 11 11 11 11 10 9 9 9 9 8 6 5 5 5 5 6 11 13 15 16 17 17 15 15 14 13 12 12 12 12 12 13
17 15 14 14 13 13 12 11 11 10 10 10 11 10 9 8 8 8 7 5 4 4 4 3 4 8 11 13 14 15 16 16 14 13 13 12 10 9 8 9 9 9
15 13 12 12 12 11 11 10 10 9 9 10 10 10 9 10 9 8 6 5 5 3 2 2 4 9 11 13 13 14 15 14 13 11 11 10 8 6 7 9 9 9
13 12 11 10 11 10 9 9 9 9 10 10 8 8 8 8 7 7 6 5 3 2 1 2 3 6 10 11 12 14 13 13 11 12 10 7 7 6 7 8 8 8
12 11 10 9 9 8 8 8 9 9 9 9 7 6 6 6 6 5 6 5 4 2 2 1 2 4 7 10 12 13 13 11 11 12 9 8 7 5 8 9 9 9
11 10 9 8 7 7 7 6 7 7 8 7 6 6 5 6 6 5 5 5 5 3 3 1 1 2 6 10 12 14 13 12 12 11 8 7 9 8 8 10 10 10
10 9 8 7 6 6 6 6 6 5 5 5 5 6 6 6 6 5 3 3 4 4 2 1 0 2 4 10 12 14 15 12 12 10 7 5 7 9 9 9 9 10
MSLP
1030.40 1030.12 1029.84 1029.52 1029.24 1028.96 1028.64 1028.44 1028.12 1027.88 1027.60 1027.36 1027.24 1027.00 1026.80 1026.76 1026.72 1026.88 1027.04 1027.08 1027.08 1027.08 1027.16 1027.32 1027.44 1027.52 1027.56 1027.52 1027.44 1027.32 1027.12 1027.04 1026.92 1026.80 1026.80 1026.68 1026.48 1026.32 1026.32 1026.20 1026.16 1026.00
1030.36 1030.20 1030.00 1029.72 1029.28 1028.92 1028.56 1028.28 1028.00 1027.72 1027.44 1027.40 1027.28 1027.08 1026.88 1026.84 1026.76 1026.76 1026.76 1026.80 1026.84 1026.84 1026.84 1026.96 1027.08 1027.16 1027.20 1027.12 1027.12 1027.08 1026.92 1026.76 1026.88 1026.72 1026.80 1026.64 1026.40 1026.12 1026.12 1025.96 1025.84 1025.76
1030.56 1030.44 1030.16 1029.80 1029.40 1029.12 1028.80 1028.44 1028.04 1027.76 1027.44 1027.20 1027.16 1027.20 1027.08 1026.92 1026.80 1026.76 1026.68 1026.56 1026.44 1026.44 1026.48 1026.56 1026.72 1026.80 1026.92 1026.92 1026.92 1026.92 1026.72 1026.64 1026.68 1026.52 1026.56 1026.48 1026.24 1026.20 1026.00 1025.80 1025.68 1025.68
1030.84 1030.56 1030.12 1029.80 1029.52 1029.32 1029.04 1028.76 1028.44 1028.12 1027.84 1027.64 1027.44 1027.32 1027.24 1027.16 1027.00 1026.88 1026.68 1026.48 1026.20 1026.08 1026.08 1026.20 1026.32 1026.44 1026.60 1026.68 1026.80 1026.68 1026.56 1026.56 1026.48 1026.44 1026.52 1026.32 1026.24 1026.12 1026.08 1025.84 1025.76 1025.60
1030.76 1030.48 1030.24 1029.96 1029.72 1029.48 1029.16 1028.88 1028.68 1028.40 1028.16 1027.88 1027.68 1027.48 1027.40 1027.20 1027.08 1026.88 1026.68 1026.36 1026.12 1025.92 1025.84 1025.96 1026.04 1026.12 1026.28 1026.40 1026.48 1026.44 1026.36 1026.36 1026.32 1026.40 1026.36 1026.24 1026.08 1026.04 1026.08 1025.88 1025.84 1025.76
1030.76 1030.56 1030.28 1030.00 1029.80 1029.56 1029.28 1028.96 1028.72 1028.48 1028.20 1027.88 1027.64 1027.48 1027.28 1027.12 1026.92 1026.88 1026.68 1026.40 1026.12 1025.92 1025.76 1025.68 1025.68 1025.76 1025.96 1026.08 1026.20 1026.20 1026.20 1026.12 1026.08 1026.32 1026.36 1026.24 1026.04 1025.92 1025.96 1025.96 1025.92 1025.84
1030.76 1030.48 1030.24 1030.00 1029.84 1029.60 1029.32 1028.96 1028.76 1028.52 1028.16 1027.92 1027.60 1027.32 1027.08 1026.92 1026.80 1026.68 1026.48 1026.28 1026.12 1025.96 1025.76 1025.60 1025.56 1025.60 1025.76 1025.92 1026.04 1026.04 1026.08 1026.12 1026.20 1026.28 1026.32 1026.16 1026.00 1026.00 1025.88 1025.88 1025.88 1025.84
1030.68 1030.40 1030.16 1030.04 1029.84 1029.56 1029.32 1029.08 1028.88 1028.60 1028.28 1027.92 1027.56 1027.16 1026.88 1026.64 1026.44 1026.24 1026.16 1026.12 1026.04 1025.88 1025.68 1025.56 1025.56 1025.68 1025.84 1025.92 1026.00 1026.08 1026.16 1026.20 1026.24 1026.20 1026.20 1026.16 1026.00 1025.96 1025.84 1025.80 1025.84 1025.92
1030.56 1030.32 1030.16 1030.04 1029.88 1029.60 1029.40 1029.20 1028.92 1028.64 1028.28 1028.00 1027.60 1027.24 1026.88 1026.60 1026.28 1026.12 1025.96 1025.84 1025.80 1025.68 1025.60 1025.56 1025.64 1025.80 1025.92 1026.12 1026.16 1026.20 1026.16 1026.08 1026.12 1026.16 1026.16 1026.12 1026.04 1025.96 1025.88 1025.88 1026.00 1026.00
1030.36 1030.20 1030.12 1029.96 1029.76 1029.52 1029.36 1029.16 1029.00 1028.64 1028.32 1028.04 1027.72 1027.40 1027.12 1026.76 1026.44 1026.12 1026.00 1025.88 1025.76 1025.68 1025.56 1025.60 1025.72 1025.84 1026.04 1026.12 1026.20 1026.16 1026.20 1026.16 1026.12 1026.16 1026.16 1026.16 1026.16 1026.12 1026.08 1026.12 1026.16 1026.12
1030.12 1030.00 1029.88 1029.84 1029.68 1029.48 1029.36 1029.16 1028.92 1028.64 1028.40 1028.16 1027.96 1027.68 1027.44 1027.04 1026.64 1026.32 1026.12 1026.00 1025.88 1025.76 1025.68 1025.76 1025.76 1025.84 1026.00 1026.12 1026.16 1026.16 1026.20 1026.24 1026.24 1026.24 1026.20 1026.16 1026.12 1026.08 1026.08 1026.16 1026.12 1026.04
1029.88 1029.84 1029.76 1029.64 1029.56 1029.40 1029.28 1029.08 1028.92 1028.68 1028.44 1028.24 1028.04 1027.88 1027.68 1027.44 1027.20 1026.96 1026.68 1026.48 1026.24 1026.08 1026.04 1026.08 1026.12 1026.20 1026.28 1026.32 1026.28 1026.28 1026.24 1026.20 1026.16 1026.20 1026.12 1026.04 1025.92 1025.88 1025.80 1025.76 1025.80 1025.68
1029.68 1029.68 1029.60 1029.52 1029.36 1029.28 1029.20 1029.04 1028.84 1028.68 1028.52 1028.36 1028.16 1028.04 1027.84 1027.68 1027.48 1027.24 1027.00 1026.84 1026.64 1026.56 1026.52 1026.44 1026.40 1026.36 1026.40 1026.36 1026.32 1026.28 1026.24 1026.24 1026.24 1026.12 1025.96 1025.80 1025.64 1025.56 1025.44 1025.32 1025.28 1025.20
1029.64 1029.60 1029.52 1029.40 1029.32 1029.24 1029.08 1028.92 1028.80 1028.64 1028.52 1028.36 1028.24 1028.08 1027.92 1027.72 1027.60 1027.36 1027.12 1026.96 1026.76 1026.68 1026.52 1026.52 1026.52 1026.44 1026.32 1026.28 1026.20 1026.20 1026.24 1026.24 1026.16 1026.04 1025.84 1025.60 1025.44 1025.24 1025.08 1024.96 1024.84 1024.76
1029.60 1029.56 1029.40 1029.28 1029.28 1029.08 1028.92 1028.76 1028.64 1028.56 1028.44 1028.32 1028.20 1028.08 1027.92 1027.80 1027.60 1027.44 1027.28 1027.16 1027.00 1026.76 1026.60 1026.52 1026.48 1026.44 1026.32 1026.32 1026.32 1026.32 1026.32 1026.24 1026.04 1025.88 1025.64 1025.40 1025.08 1024.84 1024.72 1024.60 1024.48 1024.32
1029.60 1029.48 1029.32 1029.28 1029.16 1028.92 1028.76 1028.64 1028.56 1028.52 1028.44 1028.40 1028.28 1028.16 1028.00 1027.84 1027.68 1027.52 1027.44 1027.28 1027.04 1026.88 1026.72 1026.68 1026.64 1026.52 1026.56 1026.64 1026.48 1026.16 1025.92 1025.72 1025.52 1025.36 1025.20 1024.96 1024.72 1024.48 1024.32 1024.20 1024.08 1023.96
1029.48 1029.32 1029.20 1029.12 1028.96 1028.88 1028.76 1028.72 1028.64 1028.60 1028.52 1028.40 1028.28 1028.20 1028.08 1027.92 1027.72 1027.64 1027.44 1027.20 1027.08 1027.00 1026.96 1026.88 1026.76 1026.64 1026.56 1026.20 1025.80 1025.48 1025.24 1025.00 1024.76 1024.52 1024.40 1024.36 1024.24 1024.12 1023.96 1023.72 1023.44 1023.44
1029.28 1029.16 1029.08 1029.00 1028.96 1028.92 1028.84 1028.76 1028.72 1028.68 1028.60 1028.44 1028.28 1028.20 1028.04 1027.92 1027.84 1027.64 1027.44 1027.24 1027.12 1027.08 1027.08 1026.88 1026.72 1026.60 1026.28 1025.92 1025.60 1025.24 1024.96 1024.68 1024.44 1024.16 1023.92 1023.72 1023.56 1023.48 1023.32 1023.24 1023.08 1023.16
1029.16 1029.12 1029.04 1029.00 1029.00 1028.96 1028.88 1028.80 1028.76 1028.72 1028.60 1028.44 1028.36 1028.16 1028.04 1027.96 1027.72 1027.56 1027.40 1027.24 1027.20 1027.24 1027.12 1026.84 1026.60 1026.48 1026.20 1025.84 1025.44 1025.04 1024.64 1024.32 1024.00 1023.72 1023.48 1023.28 1023.16 1023.16 1023.12 1023.12 1023.00 1022.88
1029.12 1029.08 1029.08 1029.08 1029.04 1028.96 1028.80 1028.72 1028.72 1028.68 1028.52 1028.36 1028.20 1028.04 1027.92 1027.76 1027.60 1027.44 1027.24 1027.24 1027.28 1027.28 1027.04 1026.80 1026.60 1026.44 1026.00 1025.52 1025.04 1024.64 1024.24 1023.92 1023.68 1023.48 1023.44 1023.40 1023.48 1023.44 1023.40 1023.24 1023.24 1023.12
1029.16 1029.16 1029.20 1029.16 1029.08 1028.92 1028.80 1028.76 1028.72 1028.60 1028.44 1028.16 1027.88 1027.76 1027.72 1027.56 1027.32 1027.20 1027.16 1027.24 1027.24 1027.16 1027.00 1026.72 1026.44 1026.04 1025.52 1025.04 1024.64 1024.28 1023.96 1023.68 1023.48 1023.56 1023.44 1023.44 1023.68 1023.80 1023.84 1023.72 1023.68 1023.68
1029.20 1029.24 1029.20 1029.16 1029.08 1028.92 1028.84 1028.72 1028.56 1028.40 1028.16 1027.92 1027.76 1027.64 1027.48 1027.24 1027.08 1027.04 1027.04 1027.04 1027.00 1026.96 1026.88 1026.56 1026.04 1025.60 1025.16 1024.76 1024.40 1024.04 1023.72 1023.44 1023.40 1023.52 1023.52 1023.60 1023.80 1024.00 1023.92 1023.68 1023.64 1023.56
1029.32 1029.28 1029.20 1029.12 1028.96 1028.84 1028.76 1028.60 1028.40 1028.12 1027.92 1027.72 1027.68 1027.56 1027.32 1027.12 1027.00 1026.96 1026.88 1026.88 1026.88 1026.80 1026.72 1026.36 1025.84 1025.44 1025.04 1024.56 1024.16 1023.80 1023.52 1023.28 1023.40 1023.32 1023.44 1023.76 1023.80 1023.96 1023.84 1023.76 1023.72 1023.64
1029.32 1029.28 1029.16 1029.00 1028.92 1028.84 1028.72 1028.52 1028.36 1028.12 1027.88 1027.68 1027.72 1027.56 1027.32 1027.12 1027.04 1026.96 1026.80 1026.68 1026.64 1026.56 1026.48 1026.32 1025.76 1025.36 1024.96 1024.40 1023.88 1023.48 1023.20 1023.16 1023.16 1023.00 1023.32 1023.40 1023.72 1024.00 1023.64 1023.52 1023.60 1023.60
1029.32 1029.20 1029.08 1028.92 1028.92 1028.84 1028.72 1028.60 1028.36 1028.08 1027.84 1027.84 1027.64 1027.44 1027.28 1027.04 1026.92 1026.80 1026.68 1026.52 1026.36 1026.32 1026.20 1026.12 1025.76 1025.28 1024.84 1024.20 1023.52 1022.96 1022.64 1022.68 1022.72 1022.84 1023.24 1023.40 1023.36 1023.52 1023.60 1023.36 1023.36 1023.36
1029.20 1029.16 1029.08 1029.08 1029.00 1028.88 1028.76 1028.64 1028.44 1028.24 1027.96 1027.80 1027.64 1027.36 1027.08 1026.92 1026.84 1026.68 1026.72 1026.44 1026.20 1026.04 1025.92 1025.84 1025.68 1025.20 1024.72 1023.92 1023.04 1022.24 1021.76 1022.20 1022.60 1022.80 1023.12 1023.64 1023.44 1023.20 1023.12 1023.16 1023.24 1023.20
Wind_Speed
12 11 12 12 12 12 13 14 13 13 13 12 11 11 10 9 9 8 9 8 8 8 7 7 6 6 5 5 4 4 4 3 3 4 4 5 5 4 5 6 6 5
12 12 12 12 12 12 13 14 15 15 15 14 12 11 10 9 9 8 9 9 9 9 8 8 7 7 6 5 5 4 4 4 3 3 3 5 5 5 6 7 7 6
12 13 14 13 12 14 14 14 14 13 13 14 14 12 10 9 9 8 9 10 10 9 9 9 8 8 7 6 5 5 5 4 4 4 4 5 5 5 6 6 6 8
13 13 12 13 12 13 12 12 12 12 12 12 12 12 11 10 8 9 10 11 11 10 9 9 9 8 8 7 6 6 5 5 4 4 4 5 5 5 6 6 7 7
12 11 11 11 11 12 11 11 12 11 11 11 11 11 10 11 10 10 10 11 11 10 9 9 9 8 8 7 7 6 5 5 4 4 4 5 5 5 5 6 7 8
10 10 11 11 11 12 11 12 11 12 12 12 11 10 9 10 10 10 10 10 10 10 10 10 9 9 8 7 6 6 5 5 4 4 5 6 6 5 5 6 7 8
11 11 12 11 12 12 12 12 11 11 12 12 11 11 11 10 10 10 10 10 10 11 11 10 9 8 7 6 6 6 5 5 4 5 6 6 6 6 6 6 7 8
11 11 11 11 12 12 11 11 11 11 12 12 12 11 11 11 12 10 9 9 9 10 11 10 8 7 6 5 5 5 6 4 4 5 6 7 6 7 7 6 6 7
11 11 11 11 11 11 11 11 11 12 11 12 12 12 11 11 11 11 11 10 9 9 9 9 7 6 5 5 5 6 6 5 5 5 6 7 7 8 7 7 6 7
11 12 12 10 12 11 12 12 11 11 11 12 12 11 11 11 11 11 11 10 9 8 8 7 6 5 5 5 6 6 6 6 6 6 6 6 7 7 7 6 7 7
12 12 12 12 12 11 13 13 13 12 11 11 10 11 11 11 11 10 10 9 9 9 8 7 6 5 5 5 5 5 5 6 6 6 6 6 7 7 7 7 7 8
12 12 12 13 12 12 13 13 12 12 12 10 9 9 9 9 9 8 8 8 7 6 5 5 4 4 4 5 5 5 6 6 6 6 7 7 7 7 8 7 8 8
13 12 12 12 12 12 12 12 13 13 12 11 9 9 8 8 8 9 8 7 6 5 5 4 4 4 4 5 6 7 7 7 7 8 8 8 7 8 8 9 9 8
12 11 11 12 11 11 12 12 12 12 11 9 9 9 9 10 9 10 9 8 8 7 7 5 5 6 6 7 7 7 6 7 7 8 8 8 9 10 10 11 10 10
11 10 11 11 10 10 12 13 12 11 10 10 10 10 9 10 10 10 10 10 9 9 9 7 6 6 6 5 6 7 7 8 9 9 9 10 11 12 10 10 10 9
11 11 11 11 12 12 12 11 11 11 10 10 11 10 10 10 10 10 10 10 10 9 8 7 6 5 6 10 12 10 10 9 9 10 11 10 10 12 11 10 10 9
10 11 11 12 12 12 11 10 10 10 10 11 10 10 11 10 9 10 9 9 9 8 8 7 6 5 10 16 17 18 13 11 11 10 9 9 9 10 10 11 10 9
10 11 12 12 12 11 10 10 10 10 10 9 9 9 9 9 9 9 9 8 7 6 7 7 7 9 16 17 17 18 16 12 11 11 11 11 11 10 9 8 8 7
11 12 12 11 11 11 11 10 10 10 10 9 9 9 9 8 9 8 8 7 6 6 7 7 7 10 16 18 18 19 19 16 11 11 11 11 10 8 9 10 10 9
12 12 11 11 11 11 10 10 10 11 10 9 9 8 9 9 8 9 9 7 5 6 7 7 7 10 17 18 18 19 19 17 12 11 8 6 5 6 6 6 6 6
12 10 10 10 10 10 10 10 10 10 9 9 9 9 10 9 9 9 8 5 6 6 7 8 7 15 17 18 18 18 18 16 9 4 5 4 3 2 2 2 2 2
11 10 10 10 11 10 10 11 10 10 10 9 9 9 9 9 8 7 7 7 7 6 8 9 9 16 17 17 18 17 17 11 5 4 3 3 3 2 2 2 2 2
9 10 11 11 11 11 11 11 11 10 9 8 9 9 9 9 8 7 7 8 8 7 8 9 10 12 16 16 16 16 13 7 4 5 3 3 2 2 3 2 2 2
9 10 11 11 11 11 11 10 9 8 9 8 8 9 9 7 7 6 7 7 9 9 7 8 9 11 15 16 16 16 13 7 5 5 3 3 2 2 3 3 3 4
9 10 11 11 10 10 9 9 9 9 8 8 7 7 7 6 5 6 7 8 8 8 9 9 8 11 14 16 16 16 14 6 6 5 3 3 3 3 2 3 3 4
10 11 10 8 8 8 8 8 7 8 8 7 7 6 5 5 6 7 8 8 7 7 7 6 7 8 10 15 20 15 5 5 4 4 4 3 3 2 2 2 2 3
Wind_Direction
317 317 314 311 308 304 301 299 297 294 291 285 277 273 267 266 254 227 223 225 221 218 215 210 214 215 220 223 229 250 268 274 290 312 312 320 318 319 321 321 319 311
322 323 321 316 312 311 310 307 303 298 294 289 284 280 272 268 259 234 230 231 225 220 217 213 213 217 220 227 228 239 260 260 280 279 295 307 306 314 319 321 317 316
331 327 321 319 319 319 319 316 310 306 305 303 296 290 285 273 265 251 242 237 232 225 219 214 214 215 218 226 229 232 244 257 262 277 280 299 303 312 312 318 318 316
327 323 324 326 328 329 328 326 324 320 316 312 310 306 297 288 275 265 256 245 240 233 224 218 216 215 214 217 222 238 240 243 258 272 278 281 294 299 309 312 311 311
323 325 328 328 329 330 329 329 330 327 322 317 310 305 298 293 285 277 267 258 249 242 232 223 220 218 215 216 218 235 235 242 243 248 270 282 290 297 297 307 308 306
325 325 326 326 329 329 327 326 326 326 323 320 320 314 304 299 291 277 271 264 257 250 242 231 222 217 212 218 219 230 238 243 248 249 266 278 285 291 301 299 299 299
322 323 324 326 327 326 325 324 326 323 322 320 315 312 311 303 297 283 276 270 262 256 251 244 232 223 213 214 224 232 240 246 252 254 264 274 283 287 288 291 291 292
319 320 321 324 324 325 324 328 326 324 323 318 313 311 310 304 300 297 284 270 263 258 254 248 238 227 221 222 231 237 240 241 248 257 266 272 278 283 288 290 288 287
313 317 321 322 325 326 328 330 327 325 324 321 319 317 314 309 305 300 296 286 270 262 253 242 229 216 211 220 230 240 247 251 253 261 269 276 281 282 288 287 285 281
310 315 318 322 323 323 325 327 327 326 325 323 323 320 318 315 310 304 299 292 280 268 252 230 216 209 213 220 236 244 250 256 264 266 264 269 270 275 279 277 273 279
307 312 315 319 321 320 321 323 322 323 324 324 324 326 325 321 317 314 308 302 293 283 270 251 236 232 233 240 249 257 264 269 267 266 265 264 265 267 267 263 262 260
305 309 312 316 318 318 320 321 321 320 321 320 324 329 334 335 337 334 325 319 311 301 285 274 270 271 269 268 269 273 273 274 272 269 270 266 266 265 262 259 256 256
302 306 309 313 316 317 317 318 318 318 317 319 320 323 330 335 338 336 333 331 320 313 302 295 289 276 271 267 268 265 266 266 266 268 269 271 268 266 264 263 261 256
298 303 306 309 312 312 313 314 314 312 310 309 310 314 320 324 324 323 321 317 314 307 298 288 272 269 265 267 267 269 269 266 268 269 269 269 270 273 275 274 270 267
297 302 303 306 309 311 312 311 309 308 305 304 306 306 310 315 316 315 313 311 306 303 299 293 284 276 278 280 284 277 260 258 261 260 261 265 272 276 275 273 266 267
295 298 301 306 309 310 310 307 306 306 305 306 306 308 311 313 311 311 309 305 303 300 299 294 285 283 280 278 272 270 268 259 247 252 253 251 259 273 274 274 267 261
294 299 302 305 309 310 308 304 304 306 308 307 304 302 303 303 305 305 302 301 299 297 294 291 284 277 284 289 288 284 282 282 277 270 254 244 237 238 255 266 264 247
296 301 304 305 308 307 303 299 300 305 308 308 307 305 304 307 303 299 299 298 296 296 290 286 285 284 292 294 291 289 285 280 276 271 271 269 268 263 257 262 279 252
301 303 304 304 305 306 301 296 297 304 307 307 305 304 303 299 300 298 291 290 290 291 289 288 282 288 295 294 291 287 283 279 274 272 272 273 273 276 274 276 273 262
304 304 301 301 302 302 300 296 299 301 303 304 300 298 299 297 292 292 292 292 289 289 289 284 278 286 292 290 287 285 283 282 277 281 284 277 273 270 271 261 255 250
307 303 300 301 302 301 299 296 296 296 294 298 301 300 300 296 297 295 290 281 284 282 290 284 275 287 290 289 288 287 286 284 285 269 254 250 258 279 274 268 249 255
307 303 302 302 302 299 296 295 292 292 290 294 295 295 294 292 287 285 290 292 288 285 289 287 280 291 294 294 292 289 286 283 258 233 236 230 231 230 259 229 244 245
304 303 303 303 301 300 297 296 293 292 294 298 296 294 295 292 290 291 296 297 289 283 286 289 291 291 299 298 295 289 285 278 233 232 201 210 210 206 227 231 238 255
304 303 303 303 302 300 298 297 297 297 295 298 294 294 291 290 293 296 297 297 296 292 284 287 290 293 298 299 295 288 279 261 221 232 199 207 202 208 257 253 248 267
302 303 302 301 299 297 299 298 295 293 295 296 287 282 280 280 289 298 304 304 301 292 288 286 283 293 297 297 293 287 279 234 220 217 188 196 219 212 231 246 258 258
305 306 304 301 298 298 297 295 294 292 291 291 289 280 281 291 295 304 306 304 299 295 295 289 284 293 296 298 305 310 317 175 193 196 191 164 204 243 234 253 261 286